Torna al catalogo

DELTA 1 DEB

AttivoSSO
NORAD 7053·DEBRIS·🇺🇸 United States

Lanciato Nov 6, 1973 da Vandenberg Space Force Base

Loading…

Prossimi Passaggi (prossime 24 ore)

TLE

AggiornatoSource: Space-Track

Epoca: Sep 14, 2026, 03:39 UTC

1 07053U 73086AV  26257.15232770 -.00000047  00000-0 -22619-4 0  9995
2 07053 101.7413 330.5655 0047559 134.4449 339.2273 12.48626154405344

Traccia DELTA 1 DEB in tempo reale con AllMySat

Download on the App Store